Flag for Germany Weather past 2 weeks in Lohmar, North Rhine-Westphalia, Germany

Now
55 °F

Passing clouds.


Feels Like: 54 °F
Forecast: 55 / 73 °F
Wind: 6 mph from South

Location: Koeln / Bonn

Current Time: May 4, 2015 at 5:06:15 AM

Latest Report: May 4, 2015 at 4:20 AM


Visibility: N/A

Pressure: 29.74 "Hg

Humidity: 88%

Dew point: 52 °F

Location of LohmarLocation

Historic Weather in Lohmar — Graph

°F

Lohmar temperature yesterday

Maximum temperature yesterday: 61 °F (at 12:20 PM)
Minimum temperature yesterday: 50 °F (at 3:20 AM)
Average temperature yesterday: 56 °F

Past Weeks' High & Low Weather Summary

 TemperatureHumidityPressure
High72 °F (Apr 24, 2:50 PM)100% (Apr 23, 7:20 AM)30.45 "Hg (Apr 23, 7:20 AM)
Low30 °F (Apr 19, 6:50 AM)22% (Apr 24, 5:20 PM)29.59 "Hg (Apr 27, 3:20 AM)
Average51 °F68%29.98 "Hg
* Reported Apr 19 3:20 AM — May 4 3:50 AM, Lohmar, Weather by CustomWeather, © 2015

Note: Actual official high and low records may vary slightly from our data, if they occured in-between our weather recording intervals... More about our weather records

Advertising

Lohmar weather history for previous 24 hours

 ConditionsComfort  
Time TempWeatherWind HumidityBarometerVisibility
3:50 AM
Mon, May 4
55 °FPartly cloudy.5 mph94%29.74 "HgN/A
3:20 AM55 °FPassing clouds.5 mph94%29.74 "HgN/A
2:50 AM57 °FScattered showers. Partly cloudy.6 mph88%29.74 "HgN/A
2:20 AM57 °FPassing clouds.8 mph88%29.74 "HgN/A
1:50 AM55 °FPassing clouds.7 mph94%29.71 "HgN/A
1:20 AM57 °FSprinkles. Partly cloudy.6 mph88%29.71 "HgN/A
12:50 AM57 °FScattered showers. Passing clouds.7 mph88%29.71 "HgN/A
12:20 AM57 °FSprinkles. Partly cloudy.8 mph94%29.71 "HgN/A
11:50 PM
Sun, May 3
59 °FSprinkles. Passing clouds.8 mph88%29.68 "HgN/A
11:20 PM59 °FSprinkles. Passing clouds.8 mph88%29.68 "HgN/A
10:20 PM57 °FPassing clouds.9 mph94%29.65 "HgN/A
9:50 PM57 °FScattered clouds.9 mph94%29.65 "HgN/A
9:20 PM59 °FScattered showers. Broken clouds.8 mph94%29.62 "HgN/A
8:50 PM59 °FSprinkles. Scattered clouds.6 mph94%29.62 "HgN/A
8:20 PM59 °FRain showers. Broken clouds.5 mph94%29.62 "Hg6 mi
7:50 PM59 °FRain showers. Broken clouds.9 mph94%29.62 "HgN/A
7:20 PM59 °FPartly sunny.8 mph94%29.59 "HgN/A
6:50 PM59 °FLight rain. Broken clouds.9 mph94%29.62 "HgN/A
6:20 PM59 °FRain. More clouds than sun.8 mph94%29.62 "HgN/A
5:50 PM59 °FRain. More clouds than sun.7 mph94%29.62 "HgN/A
5:20 PM59 °FRain. Mostly cloudy.6 mph94%29.62 "Hg6 mi
4:50 PM59 °FRain. Mostly cloudy.8 mph94%29.62 "Hg6 mi
4:20 PM59 °FRain. Mostly cloudy.9 mph94%29.62 "Hg6 mi
3:50 PM61 °FRain. Mostly cloudy.10 mph88%29.62 "Hg6 mi
3:20 PM59 °FLight rain. Mostly cloudy.9 mph94%29.62 "HgN/A
2:50 PM61 °FDrizzle. Mostly cloudy.10 mph88%29.65 "Hg5 mi
2:20 PM61 °FDrizzle. Mostly cloudy.15 mph77%29.65 "HgN/A
1:50 PM61 °FDrizzle. Mostly cloudy.13 mph77%29.65 "HgN/A
1:20 PM61 °FPartly sunny.10 mph72%29.65 "HgN/A
12:50 PM61 °FBroken clouds.10 mph72%29.65 "HgN/A
12:20 PM61 °FBroken clouds.13 mph72%29.65 "HgN/A
11:50 AM59 °FBroken clouds.13 mph77%29.65 "HgN/A
11:20 AM57 °FBroken clouds.9 mph82%29.65 "HgN/A
10:50 AM55 °FDrizzle. Broken clouds.10 mph82%29.65 "Hg4 mi
10:20 AM57 °FMore clouds than sun.13 mph77%29.68 "HgN/A
9:50 AM55 °FPartly sunny.13 mph77%29.68 "HgN/A
9:20 AM55 °FPartly sunny.13 mph77%29.68 "HgN/A
8:50 AM55 °FBroken clouds.12 mph77%29.65 "HgN/A
8:20 AM54 °FSunny.6 mph77%29.68 "Hg10 mi
7:50 AM52 °FSunny.5 mph77%29.71 "Hg10 mi
7:20 AM52 °FSunny.6 mph77%29.68 "Hg10 mi
6:50 AM52 °FClear.5 mph77%29.68 "Hg10 mi
6:20 AM52 °FClear.6 mph77%29.68 "Hg10 mi
5:50 AM52 °FClear.5 mph77%29.71 "Hg10 mi
5:20 AM50 °FClear.5 mph76%29.71 "Hg10 mi
Weather by CustomWeather, © 2015

See weather overviewHow to use our weather pages